Weather History for CYCO - March, 2013

Change the Weather History Date:

Monday, March 4, 2013

  Actual Average Record
Temperature  
Mean Temperature -26 °F -  
Max Temperature -18 °F -8 °F 1 °F (1998)
Min Temperature -33 °F -21 °F -38 °F (2005)
Degree Days  
Heating Degree Days 90    
Moisture  
Dew Point -32 °F    
Average Humidity 71    
Maximum Humidity 76    
Minimum Humidity 57    
Precipitation  
Precipitation 0.00 in - - ()
Sea Level Pressure  
Sea Level Pressure 30.62 in    
Wind  
Wind Speed 3 mph ()    
Max Wind Speed 9 mph    
Max Gust Speed -    
Visibility 10.8 miles    
Events Snow    
Averages and records for this station are not official NWS values.
T = Trace of Precipitation, MM = Missing Value Source: Averaged Metar Reports

Daily Weather History Graph

Daily Weather History Graph

Search for Another Location

Airport or City:

Trip Planner

Search our weather history database for the weather conditions in past years. The results will help you decide how hot, cold, wet, or windy it might be!

Date:

Astronomy

Mar. 04, 2013 Rise Set
Actual Time 7:45 AM MST 6:00 PM MST
Civil Twilight 6:49 AM MST 6:56 PM MST
Nautical Twilight 5:45 AM MST 8:00 PM MST
Astronomical Twilight 4:37 AM MST 9:09 PM MST
Moon 4:35 AM MST 8:06 AM MST
Length of Visible Light 12h 06m
Length of Day
10h 15m
Waning Gibbous, 51% of the Moon is Illuminated
Mar 4
Waning Gibbous
Mar 4
Last Quarter
Mar 11
New
Mar 19
First Quarter
Mar 27
Full

Hourly Weather History & Observations

Time (MST) Temp. Windchill Dew Point Humidity Pressure Visibility Wind Dir Wind Speed Gust Speed Precip Events Conditions
12:00 AM -29.2 °F -46.2 °F -34.6 °F 75% 30.71 in 15.0 mi SSW 5.8 mph - N/A   Clear
1:00 AM -29.2 °F -44.0 °F -36.4 °F 68% 30.71 in 15.0 mi SW 4.6 mph - N/A   Clear
2:00 AM -29.2 °F -44.0 °F -34.6 °F 75% 30.70 in 15.0 mi SW 4.6 mph - N/A   Clear
3:00 AM -29.2 °F -44.0 °F -34.6 °F 75% 30.70 in 15.0 mi WSW 4.6 mph - N/A   Clear
4:00 AM -31.0 °F -46.1 °F -36.4 °F 75% 30.70 in 15.0 mi WSW 4.6 mph - N/A   Clear
5:00 AM -32 °F - -38 °F 57% 30.69 in 15 mi SW 6.9 mph - - Snow Snow
5:00 AM -31.0 °F -50.3 °F -38.2 °F 68% 30.69 in 15.0 mi SW 6.9 mph - N/A   Clear
6:00 AM -31.0 °F -46.1 °F -38.2 °F 68% 30.69 in 15.0 mi WSW 4.6 mph - N/A   Clear
7:00 AM -31.0 °F -50.3 °F -38.2 °F 68% 30.68 in 15.0 mi SW 6.9 mph - N/A   Partly Cloudy
8:00 AM -31.0 °F - -38.2 °F 68% 30.66 in 15.0 mi Calm Calm - N/A   Partly Cloudy
9:00 AM -31.0 °F - -38.2 °F 68% 30.66 in 15.0 mi Calm Calm - N/A   Scattered Clouds
10:00 AM -29.2 °F - -34.6 °F 75% 30.63 in 15.0 mi Calm Calm - N/A   Mostly Cloudy
11:00 AM -26 °F - -32 °F 59% 30.63 in 15 mi Calm Calm - -   Partly Cloudy
11:00 AM -25.6 °F - -31.0 °F 76% 30.63 in 15.0 mi Calm Calm - N/A   Mostly Cloudy
11:47 AM - - - N/A% - 10.0 mi Calm Calm - N/A Snow Light Snow Grains
12:00 PM -23.8 °F - -31.0 °F 69% 30.62 in 10.0 mi Calm Calm - N/A Snow Light Snow Grains
1:00 PM -22.0 °F - -31.0 °F 63% 30.61 in 10.0 mi Calm Calm - N/A Snow Light Snow Grains
2:00 PM -20.2 °F - -25.6 °F 76% 30.59 in 10.0 mi Calm Calm - N/A Snow Light Snow Grains
3:00 PM -20.2 °F - -25.6 °F 76% 30.58 in 6.0 mi Calm Calm - N/A Snow Light Snow Grains
4:00 PM -20.2 °F - -25.6 °F 76% 30.57 in 4.0 mi Calm Calm - N/A Snow Light Snow Grains
5:00 PM -20 °F - -25 °F 64% 30.56 in 4 mi Calm Calm - - Snow Snow Grains
6:00 PM -20.2 °F - -25.6 °F 76% 30.56 in 4.0 mi Calm Calm - N/A Snow Light Snow Grains
7:00 PM -20.2 °F -30.9 °F -25.6 °F 76% 30.56 in 4.0 mi WNW 3.5 mph - N/A Snow Light Snow Grains
8:00 PM -20.2 °F -40.1 °F -25.6 °F 76% 30.55 in 5.0 mi North 9.2 mph - N/A Snow Light Snow Grains
9:00 PM -22.0 °F -39.4 °F -27.4 °F 76% 30.55 in 6.0 mi North 6.9 mph - N/A Snow Light Snow
10:00 PM -25.6 °F -41.9 °F -31.0 °F 76% 30.54 in 6.0 mi NW 5.8 mph - N/A Snow Light Snow
11:00 PM -28 °F - -34 °F 57% 30.54 in 6 mi West 5.8 mph - - Snow Snow
11:00 PM -27.4 °F -44.1 °F -34.6 °F 69% 30.54 in 6.0 mi West 5.8 mph - N/A   Ice Crystals